Погода в Багдарине

Погода в Багдарине : погода сейчас, прогноз погоды и архив. Всё, что Вы хотите узнать о погоде в Багдарине!

Поиск расширенной информации на нашем сайте:

Другие новости

Новости СМИ2

Главная страница сайта

Новости сайта

03.07.2017

Напоминаем, что на нашем специализированном сайте Метеоцентр.Азия вы можете получить высокодетализированные автоматические прогнозы погоды по пунктам России, СНГ и мира в авиационном формате (включающие направление и скорость ветра, видимость, явления погоды, количество и форму облачности, нижнюю и верхнюю границу облачности).


Погода в Багдарине - сегодня

Время (UTC), дата Ветер
(°,м/с) 
Видим.   Явления Облачность Т
(°С)
Тd
(°С)
f(%) Тe
(°С)
Pmin
(гПа)
dP
(гПа)
Po
(мм)
O2
(г/м3)
Тmin Tmax R s Состояние
почвы
06 18.07.17 290 (З) 20000 м    3/1 1000 м верхняя 
[Cu med, cong|Ci fib]
+21.8 +4.9 33 +22  1005  -0.7  680  253           
09 18.07.17 330 (СЗ) 5{10}  20000 м    8/3 1000 м средняя, верхняя 
[Sc|Ac lent|Ci fib]
+20.9 +4.7 35 +21  1005.6  0.3  680  254           
12 18.07.17 310 (СЗ) 2{10}  20000 м    8/8 1000 м 
+17.9 +6.7 48 +19  1007.7  681  256    +22.8       
15 18.07.17 290 (З) н/о    3/0 средняя, верхняя 
[Ac lent|Ci fib]
+9.6 +7.4 86 +11  1011.4  0.5  681  264           
18 18.07.17 340 (С) н/о    ясно 
+5.9 +4.9 93 +7  1012.9  681  268           
21 18.07.17 340 (С) 20000 м    ясно 
+2.9 +2.4 97 +4  1014.9  0.6  682  271           
00 19.07.17 120 (ЮВ) 20000 м    8/0 средняя, верхняя 
[Ac trans|Ci ing]
+13.1 +6.5 64 +14  1010.3  -0.5  681  261  +2.9        влажная 
03 19.07.17 160 (Ю) 20000 м    10/8 1000 м средняя, верхняя 
[Sc|Ac trans|Ci sp]
+18.3 +6.6 46 +20  1007.1  -1.1  680  256           
06 19.07.17 140 (ЮВ) 20000 м    10/6 1000 м кучево-дожд., средняя, верхняя 
[Cb cap|Ac trans|Ci sp]
+19.7 +5.2 39 +21  1005.6  -1  680  254           
09 19.07.17 тихо ()   20000 м    10/4 1000 м кучево-дожд., средняя, верхняя 
[Cb cap|Ac trans|Ci sp]
+20.8 +5.7 37 +21  1004.3  -0.8  679  253           
12 19.07.17 090 (В) 20000 м    10/6 1000 м средняя, верхняя 
[Sc diur, vesp|Ac As|Ci sp]
+18 +8.3 53 +20  1005.6  0.3  679  255    +20.9       
15 19.07.17 300 (СЗ) н/о    10/6 1000 м средняя 
[Sc diur, vesp|As trans]
+11.8 +8.4 80 +14  1009.2  1.3  680  261           
18 19.07.17 тихо ()   н/о    10/4 1000 м средняя 
[Sc|As trans]
+11.5 +7.9 79 +12  1009.8  0.4  681  262           
21 19.07.17 тихо ()   20000 м    9/6 1000 м средняя, верхняя 
[Sc|Ac As|Ci fib]
+8.1 +7.1 93 +8  1011.7  0.5  681  265           
00 20.07.17 150 (ЮВ) 20000 м  дымка  9/4 1000 м средняя, верхняя 
[Sc|As trans|Ci]
+11.9 +8.8 81 +14  1010.9  0.6  681  261  +8.1        влажная 
03 20.07.17 190 (Ю) 20000 м    10/3 1000 м кучево-дожд., верхняя 
[Cb cap|Ci sp]
+20.4 +5.4 37 +20  1006.7  -1.1  681  254           
06 20.07.17 260 (З) 20000 м    10/4 1000 м кучево-дожд., средняя, верхняя 
[Cb cap|Ac trans|Ci fib]
+22.6 +4.1 30 +23  1005.1  -0.8  680  252           
09 20.07.17 220 (ЮЗ) 20000 м    10/4 1000 м кучево-дожд., средняя, верхняя 
[Cb cap|Ac trans|Ci fib]
+21 +5.7 37 +21  1005.4  -0.2  680  253           
12 20.07.17 240 (ЮЗ) 20000 м    8/4 1000 м кучево-дожд., средняя, верхняя 
[Cb cap|Ac trans|Ci fib]
+16.6 +6.1 50 +18  1007.2  0.3  680  257    +22.7       
15 20.07.17 290 (З) н/о    ясно 
+9.3 +5.7 78 +10  1011.7  1.6  681  264           
18 20.07.17 340 (С) н/о    ясно 
+4.2 +3.5 95 +5  1014.2  0.4  682  270           
21 20.07.17 тихо ()   20000 м    10/0 верхняя 
[Ci fib]
+2.4 +2 97 +2  1014.8  0.1  682  272           
00 21.07.17 тихо ()   20000 м    10/0 средняя, верхняя 
[Ac lent|Ci fib]
+10.9 +5.9 71 +11  1011.1  -0.3  681  263  +2.2        влажная 
03 21.07.17 тихо ()   20000 м    10/8 1000 м кучево-дожд., средняя 
[Cb cap|Ac lent]
+17.8 +9.4 58 +20  1006.9  -1.4  680  256           
06 21.07.17 010 (С) 20000 м  гроза без осадков  10/10 1000 м кучево-дожд. 
[Cb cap]
+18.8 +10 57 +22  1005  -1.5  679  254           
Время (UTC), дата Ветер
(°,м/с) 
Видим.   Явления Облачность Т
(°С)
Тd
(°С)
f(%) Тe
(°С)
Pmin
(гПа)
dP
(гПа)
Po
(мм)
O2
(г/м3)
Тmin Tmax R s Состояние
почвы

Для получения пояснительной информации подведите курсор к названию столбца.

ПОГОДА в Багдарине - архив

Всё, что Вы хотите узнать о погоде в Багдарине - удобно и подробно!

Выберите нужную дату (начиная с 1 января 2015* года) и нажмите кнопку "Найти".
Будут отображены архивные сводки погоды по пункту Багдарин, начиная с указанной даты.


Отображать данные в формате CSV (для использования в таблицах Excel)


Внимание! Наш архив погоды предназначен исключительно для личного некоммерческого использования в познавательных целях. Если Вам необходимы официальные справки о состоянии погоды (для производственных, юридических, коммерческих и т.п. целей), обращайтесь в органы Росгидромета.

*Примечание: данная дата относится к архиву по метеостанциям СССР (Россия, СНГ, Балтия).
Архив по метеостанциям Зарубежной Европы и Азии (кроме Китая) хранится 10 дней, по другим регионам земного шара (Китай, Африка, Америка, Австралия, Океания) - 1 день.

Багдарин - район местоположения метеостанции


Название, широта, долгота, высота метеостанции:
Багдарин 54.5°ш. 113.6°д. 903 м над ур. моря [Российская Федерация]

Дополнительная информация

В oтличие oт бoльшинства пoгoдных сайтoв мы публикуем пoдрoбную метеoинфoрмацию в детальнoм прoфессиoнальнoм фoрмате.

Характеристики температуры и влажнoсти вoздуха измеряются на высoте 2 м в тени вдали oт зданий и деревьев.
Скoрoсть ветра измеряется на высoте 10 м (на урoвне рoста челoвека скoрoсть ветра ниже в 1.5-2 раза). Если метеoстанция нахoдится в гoрoде или в лесу, тo скoрoсть ветра занижена на 2-4 м/с пo сравнению с oткрытым местoм. Скoрoсть ветра над акватoриями крупных рек и oзёр, а также на вершинах хoлмoв на 2-5 м/с выше, чем в oбычных услoвиях.
Атмoсфернoе давление в разных тoчках местнoсти мoжет значительнo oтличаться oт давления на метеoстанции, в зависимoсти oт услoвий рельефа (при пoдъёме на 10 м давление пoнижается примернo на 1 мм рт.ст.).